Location: Muenchen
(48.1800°N, 11.5800°E)
Time: 03:59:18
(UTC+02:00)

Cosmos 1455 - Visible Passes

Search period start: 17 October 2017 00:00
Search period end: 27 October 2017 00:00
Orbit: 503 x 525 km, 82.5° (Epoch: 16 October)

Date Brightness Start Highest point End Pass type
(mag) Time Alt. Az. Time Alt. Az. Time Alt. Az.
22 Oct 4.9 07:04:05 10° NNE 07:07:05 21° ENE 07:10:04 10° ESE visible
23 Oct 5.1 06:48:47 10° NNE 06:51:29 18° ENE 06:54:10 10° ESE visible
24 Oct 5.2 06:33:32 10° NNE 06:35:52 15° ENE 06:38:10 10° ESE visible
25 Oct 5.3 06:18:25 10° NE 06:20:14 13° ENE 06:22:03 10° E visible
26 Oct 5.6 06:03:34 10° NE 06:04:36 11° ENE 06:05:37 10° E visible
